Wind_Speed
68 69 71 71 72 72 72 74 76 78 80 80 79 77 75 74 72 72 73 73 73 74 75 74 74 73 73 72 72 72 72 73 74 75 76 78 79 80 82 82 82 83 84 84 85 85 86 86 87 88 89 90 90 90 90 90 91 93 94 95 95 97 98 100 102 104 105 107 108 110 110 111 111 112 113 114 116 116 117 117 117 117 117 117 119
70 71 72 73 73 73 74 76 78 80 83 83 81 79 78 77 74 73 74 75 76 76 77 77 77 76 76 75 75 74 74 74 75 76 78 79 80 81 83 84 84 85 85 86 87 87 88 89 89 90 91 92 93 93 93 92 92 94 95 96 97 98 100 102 103 105 106 108 109 110 111 111 112 113 115 116 117 117 118 118 119 119 119 120 122
74 74 74 74 75 75 76 78 79 82 84 84 83 82 80 78 76 76 77 78 78 78 79 80 80 80 80 80 79 79 79 80 80 81 81 82 82 82 83 85 86 86 87 88 89 89 90 91 92 93 93 94 95 95 95 95 94 95 96 98 99 101 102 104 105 106 107 109 110 110 111 112 114 116 117 118 118 118 119 120 120 120 122 124 126
78 78 77 77 77 77 79 80 81 83 84 86 86 85 82 80 79 79 80 80 80 81 81 82 83 83 83 83 84 84 85 85 85 85 84 84 83 84 84 86 87 88 88 89 90 91 92 93 94 95 95 96 96 97 97 97 97 97 98 100 102 103 104 105 106 107 108 109 110 110 111 114 116 118 118 117 117 119 120 120 121 123 125 127 128
81 80 80 79 80 80 82 83 84 85 86 88 88 87 84 83 83 83 83 83 83 83 83 83 84 85 86 87 87 88 88 87 86 86 85 85 85 85 86 87 88 90 90 91 92 93 95 96 97 97 97 97 98 98 99 99 99 100 101 102 103 104 105 106 107 107 108 109 111 112 114 116 117 117 117 117 118 120 121 121 124 126 127 128 129
84 82 81 81 81 82 84 86 86 87 89 90 89 88 87 86 86 86 85 84 85 85 85 86 87 88 89 89 89 88 88 87 87 87 87 86 87 87 88 89 90 92 93 94 95 96 97 98 98 99 99 99 100 100 101 101 102 102 103 103 104 104 105 106 107 108 109 111 113 114 116 116 116 117 118 119 120 121 121 123 125 127 127 128 128
86 85 84 83 84 84 86 87 88 89 91 91 90 89 89 88 87 87 86 86 87 88 89 90 90 90 90 89 89 88 88 87 88 88 88 88 88 89 90 91 92 94 95 97 97 98 99 99 99 100 100 101 101 102 102 102 103 103 103 104 105 105 106 107 108 110 111 113 114 115 115 116 116 118 119 120 121 122 124 125 125 126 127 127 128
88 88 87 87 86 87 87 89 90 91 92 92 92 91 90 89 89 88 88 89 91 92 93 93 92 91 90 89 89 89 89 89 89 89 89 89 90 90 91 93 94 95 97 98 99 99 100 100 100 101 101 102 102 102 102 103 103 104 105 105 106 107 108 109 110 111 112 113 114 114 115 116 118 120 121 122 124 125 127 126 125 126 127 128 128
91 91 91 90 90 90 89 90 91 92 93 93 93 92 91 92 92 93 93 94 94 94 94 92 91 91 90 90 90 90 90 90 90 90 90 91 91 91 92 93 95 96 97 98 99 100 100 100 100 101 101 101 102 102 103 103 104 105 106 107 108 108 109 110 110 111 112 112 113 114 116 118 121 122 124 125 127 128 129 129 128 128 128 128 128
92 92 92 92 93 92 91 92 93 94 95 95 94 94 95 96 97 97 97 96 95 94 92 92 91 91 90 90 90 90 90 90 90 90 91 91 91 92 92 93 94 95 96 97 98 99 99 99 99 99 99 100 100 101 103 104 105 106 107 108 108 108 108 109 109 110 111 112 114 116 118 121 123 125 126 127 128 129 130 130 129 129 128 127 127
94 94 93 94 95 94 94 95 95 96 97 97 98 98 99 99 98 98 96 94 93 92 92 91 91 91 90 89 89 89 89 90 90 91 91 91 91 92 92 93 94 95 95 96 96 97 98 98 98 98 99 99 100 101 102 104 105 106 107 108 108 108 108 108 109 111 112 114 116 118 120 122 124 126 128 128 129 130 130 130 129 129 128 126 126
97 97 97 97 97 97 97 97 98 99 100 101 101 101 100 99 97 96 95 93 92 91 91 90 90 89 88 87 87 87 87 88 89 90 90 91 91 92 92 93 93 94 94 94 95 96 96 97 98 98 99 99 100 101 103 104 105 106 107 107 108 108 109 110 112 114 115 117 119 121 123 124 126 128 129 129 129 129 129 130 129 128 127 127 127
101 101 101 101 100 100 100 101 102 102 103 102 102 101 100 98 96 94 93 91 90 90 89 88 87 86 85 85 85 85 85 85 86 86 86 87 87 88 89 89 90 90 91 91 92 93 94 95 96 96 97 98 99 101 102 103 104 105 107 108 109 110 112 113 115 117 119 121 122 124 126 127 128 129 130 129 129 129 129 128 128 127 127 127 127
104 104 104 104 104 105 105 105 104 104 104 103 102 101 99 96 94 92 91 90 89 88 87 86 85 84 84 84 84 83 83 83 83 82 82 82 82 82 83 84 85 86 87 88 89 90 92 93 93 94 95 96 98 100 101 102 104 106 107 109 111 112 114 116 118 120 121 123 125 127 128 129 129 129 130 129 128 128 127 127 127 127 126 126 127
106 106 107 107 107 107 107 106 105 104 103 101 100 98 96 94 92 91 89 88 87 86 85 85 85 85 86 86 85 84 83 83 83 82 82 81 81 82 83 85 86 87 88 89 89 90 92 93 94 95 96 98 100 101 103 104 105 107 109 110 112 114 115 117 119 121 122 124 126 127 128 128 128 128 128 128 127 127 126 126 126 125 125 126 127
109 109 109 109 108 108 107 105 104 102 100 98 96 94 93 91 89 88 87 87 87 87 87 87 88 88 89 89 89 88 87 86 86 86 86 85 85 86 88 89 90 91 92 93 94 95 96 97 97 99 100 102 103 104 105 107 108 110 111 112 113 115 117 118 120 121 123 125 126 126 126 126 127 126 126 126 126 125 125 124 124 125 125 126 127
111 111 110 109 108 106 105 103 100 98 96 95 93 92 91 90 89 88 88 88 89 89 90 90 91 91 92 92 92 92 91 90 90 90 90 90 91 92 93 94 95 96 97 98 98 99 100 101 102 103 104 105 106 107 108 110 111 112 113 114 116 117 119 120 122 123 124 124 125 125 125 125 125 125 125 125 124 123 123 123 124 125 126 126 126
110 109 108 106 105 103 101 99 97 95 93 92 92 91 91 91 91 91 91 91 92 93 93 93 93 94 94 94 95 95 95 94 94 93 93 93 95 96 97 98 99 100 100 101 102 102 103 104 105 106 107 108 109 110 111 112 114 114 116 117 118 119 121 122 123 123 124 124 124 124 123 123 123 123 123 123 122 122 122 123 124 126 127 127 127
105 104 103 102 100 99 97 95 94 93 92 92 92 92 93 93 94 94 94 94 95 96 96 97 97 97 97 97 97 98 97 97 97 97 96 97 98 99 100 101 102 103 103 104 105 105 106 106 108 109 110 111 112 113 114 115 116 117 118 119 120 121 122 123 123 123 123 122 122 122 122 122 122 122 121 121 121 121 122 124 125 127 127 128 128
99 98 98 97 96 95 94 94 93 93 93 93 94 94 95 96 97 97 98 98 99 100 101 101 101 101 101 101 101 101 101 101 101 101 101 101 102 102 103 104 105 106 107 107 107 108 108 109 110 111 112 113 114 115 116 117 117 118 119 120 121 121 122 122 122 122 121 121 121 121 121 121 121 120 120 120 120 122 123 125 126 127 128 129 130
95 94 94 94 94 95 94 95 95 95 96 96 96 97 98 99 100 101 103 103 104 105 105 105 105 105 105 105 105 105 105 105 105 106 106 106 106 106 107 107 108 109 110 110 110 111 111 111 112 113 114 115 116 117 117 118 119 120 120 121 121 121 121 121 120 120 120 120 119 119 119 119 119 119 119 120 121 123 124 125 126 127 128 130 131
93 93 94 94 96 97 97 98 98 98 99 99 100 101 102 103 105 107 108 109 109 109 109 109 108 108 108 108 108 108 107 107 108 108 109 109 109 110 110 111 111 112 112 112 113 113 113 114 114 115 115 116 117 117 118 118 119 120 120 120 119 119 119 119 119 119 118 118 117 117 117 117 118 118 119 121 122 123 124 126 127 128 129 130 131
95 95 96 96 97 98 99 100 101 102 103 104 105 106 108 109 111 112 113 113 113 113 112 112 111 111 111 110 110 110 110 110 110 110 110 111 111 112 113 113 113 114 114 114 114 114 114 115 115 115 116 116 116 117 117 118 118 118 118 118 117 117 117 117 117 116 116 116 116 115 116 117 118 119 120 121 122 124 125 127 128 130 131 132 132
99 99 100 100 101 102 104 105 106 108 109 110 112 113 114 115 116 117 117 117 116 116 115 115 114 114 114 113 113 112 112 112 112 112 112 113 113 113 114 114 114 114 114 114 114 114 114 114 114 114 115 115 115 115 115 116 116 116 115 115 115 115 114 114 114 114 114 114 115 115 116 117 118 119 121 122 123 125 126 128 129 131 132 133 133
106 106 107 108 108 109 110 112 113 114 116 116 117 118 119 119 120 120 119 119 118 118 117 117 116 116 116 115 115 114 114 114 114 114 114 115 115 115 115 115 115 114 114 114 114 113 113 113 113 113 113 113 113 113 113 113 113 112 112 112 112 112 112 112 112 112 113 113 114 115 116 117 118 120 121 123 124 126 128 129 131 132 133 133 133
113 113 114 114 115 116 116 117 118 119 120 120 121 122 122 123 123 122 121 121 120 119 118 118 117 117 116 116 116 116 116 116 116 116 116 116 116 116 116 116 115 115 114 114 113 113 112 112 112 111 111 111 110 110 110 110 109 109 109 109 110 110 110 111 111 112 112 113 114 115 116 118 119 121 122 124 126 127 129 130 132 132 133 133 133
118 118 119 119 120 120 121 121 122 122 123 124 124 125 125 125 125 123 122 121 120 119 118 117 117 116 116 116 116 116 116 116 116 116 116 116 116 115 115 115 114 114 113 112 112 111 111 110 110 109 109 108 108 107 107 107 107 107 107 107 108 108 109 110 110 111 112 113 115 116 118 119 121 122 124 125 127 128 129 131 131 132 132 132 132
122 122 123 123 123 123 123 124 124 124 125 125 125 125 125 125 124 123 121 120 119 118 118 117 116 116 116 116 116 116 116 116 116 115 115 114 114 113 113 112 112 111 111 111 110 110 109 108 108 107 106 106 105 105 105 105 105 105 105 106 107 108 109 110 111 112 113 114 116 117 119 121 122 123 125 126 128 129 129 130 130 130 131 130 130
124 125 125 125 125 125 125 124 124 124 124 124 124 125 125 125 123 122 121 119 119 118 117 117 116 116 116 116 116 115 115 114 114 113 113 112 112 111 111 110 110 110 109 109 108 108 107 106 106 105 105 104 104 104 104 104 104 105 105 106 107 108 109 110 112 113 114 116 117 119 120 122 123 125 126 127 128 129 129 129 129 129 129 128 126
124 124 125 125 125 124 123 123 122 123 124 125 125 126 125 124 123 121 120 119 118 117 116 116 115 115 115 114 113 113 112 112 111 111 111 110 110 110 109 109 108 108 108 107 107 106 106 105 104 104 104 104 104 104 104 104 105 106 106 107 108 109 111 112 113 115 116 117 119 120 122 123 124 125 127 127 128 128 128 128 128 127 126 125 124
122 122 122 122 122 121 121 121 122 124 125 126 125 125 125 124 121 119 118 117 116 115 115 114 114 113 112 111 111 110 110 110 109 109 109 109 109 108 108 107 107 107 106 106 106 105 105 105 104 104 104 104 104 104 104 105 106 107 108 109 110 111 113 114 115 116 118 119 120 122 123 124 125 126 127 127 127 127 127 126 126 125 124 123 122
119 119 119 119 119 119 120 121 123 124 125 125 124 124 123 122 119 117 116 114 114 113 113 113 112 111 110 110 109 109 109 108 108 108 107 107 107 107 107 107 106 106 105 105 104 104 104 104 104 104 104 104 104 105 105 106 107 109 110 111 112 114 115 116 117 118 120 121 122 123 124 124 125 125 126 126 126 126 125 124 124 123 122 122 121
117 117 116 116 116 116 117 119 120 121 122 122 121 121 121 119 117 115 114 113 113 112 112 112 111 110 110 109 109 108 108 107 107 106 106 106 106 105 105 105 105 104 104 103 103 103 103 103 103 104 104 104 105 106 107 108 109 110 112 113 115 116 117 118 119 120 121 121 122 123 123 123 124 124 124 125 125 124 123 123 122 121 121 120 120
116 115 114 114 114 114 115 117 118 119 119 120 120 119 118 117 115 114 114 114 113 113 112 111 111 110 109 108 107 107 106 105 105 104 104 104 104 103 103 103 103 103 103 103 103 103 103 104 104 104 105 106 107 108 109 110 111 112 113 115 116 117 118 119 120 120 121 121 122 122 122 122 122 122 123 123 123 123 122 121 121 120 120 120 120
115 114 113 113 113 113 114 115 117 118 118 119 118 117 115 114 114 113 113 112 112 111 110 110 109 108 107 107 106 105 104 103 103 102 102 102 102 102 102 102 102 102 103 103 104 104 105 105 106 106 107 108 109 110 111 112 113 114 115 116 117 118 119 119 119 120 120 120 120 120 120 120 121 121 122 122 122 121 120 120 119 120 120 120 119
114 113 112 112 111 112 112 113 114 115 115 115 114 113 112 111 110 109 109 109 109 108 107 107 107 106 105 105 104 103 103 102 102 102 102 102 102 102 102 102 103 104 104 105 106 106 107 107 108 109 109 110 111 112 113 114 115 116 117 117 118 118 119 119 119 119 118 118 119 119 119 119 120 120 120 120 120 119 119 119 119 120 120 119 119
110 109 109 108 108 108 109 110 110 111 111 109 108 107 107 107 107 106 106 106 105 105 104 104 104 104 103 103 103 103 103 102 102 102 103 103 103 103 103 104 104 105 106 107 107 108 109 109 110 111 111 112 113 113 114 115 115 116 116 117 117 117 118 118 118 117 117 117 118 118 118 118 118 118 118 118 118 118 119 119 120 120 119 119 118
103 103 102 103 103 103 104 105 106 107 106 104 102 102 102 103 103 103 102 102 102 102 102 102 102 102 102 102 101 102 102 102 102 102 103 103 103 104 104 105 106 106 107 108 108 109 110 111 111 112 112 113 113 114 115 115 116 116 116 116 116 116 117 117 117 117 117 117 117 117 117 116 116 116 116 117 117 118 119 119 119 119 118 117 115
98 97 97 97 97 98 100 101 103 103 102 100 99 99 99 99 99 99 99 99 100 100 100 101 101 101 100 100 100 100 101 101 101 102 102 103 103 104 104 105 106 107 107 108 109 110 110 111 112 112 113 114 114 115 115 116 116 116 116 116 116 116 116 116 116 116 116 116 116 116 116 115 115 115 116 116 117 118 118 118 118 117 116 114 111
95 94 94 94 94 95 97 99 100 100 99 99 98 97 97 97 97 97 98 98 99 99 100 101 101 100 100 100 100 100 100 101 101 101 102 103 103 104 105 106 107 107 108 109 110 110 111 112 112 113 113 114 114 115 115 115 115 115 115 115 116 115 115 115 115 115 115 115 115 115 115 115 115 115 116 116 116 117 117 116 115 114 112 110 107
94 93 92 92 93 94 96 97 98 98 98 98 98 96 95 95 96 96 97 98 99 100 100 101 101 101 100 100 100 101 101 101 102 102 102 103 104 105 106 107 108 108 109 110 110 111 112 112 112 113 113 113 114 114 114 115 115 115 115 115 115 115 114 114 114 114 114 114 115 115 115 115 115 115 115 115 115 114 114 113 112 110 107 105 103
94 93 92 92 93 95 96 96 96 96 97 97 97 96 96 95 95 96 97 98 99 100 101 101 101 101 101 101 101 102 102 102 102 102 103 104 105 105 106 107 107 108 109 109 110 110 111 111 111 112 112 113 113 114 114 114 115 115 115 114 114 114 114 113 113 113 113 114 114 114 114 114 114 114 114 113 112 111 111 109 107 105 103 101 99
93 93 93 93 93 95 97 97 96 96 96 96 96 96 95 95 95 96 97 97 98 99 100 101 101 101 101 102 102 102 102 102 102 103 103 104 105 105 106 106 107 107 108 108 108 109 109 110 110 111 111 112 112 113 113 113 114 114 114 114 114 114 113 113 113 113 113 113 113 113 113 113 113 112 111 110 109 108 106 105 103 101 99 98 96
92 92 93 93 93 94 95 97 97 98 97 97 96 95 95 95 95 96 96 97 98 98 99 100 100 100 101 102 102 103 102 102 102 103 104 104 104 104 105 105 106 106 106 107 107 107 108 108 109 109 110 110 111 111 112 113 113 113 114 113 113 113 113 113 112 112 112 112 112 112 111 111 110 109 108 107 105 104 102 100 98 97 96 94 93
91 91 91 92 93 94 94 95 97 97 98 97 96 96 95 95 95 95 96 97 97 98 98 99 99 100 101 102 102 102 102 102 102 102 103 103 103 104 104 105 105 105 105 106 106 106 106 107 107 108 108 109 110 111 112 113 113 113 113 113 113 112 112 112 111 111 111 110 110 109 109 108 108 107 106 104 102 100 98 96 94 93 92 91 90
90 90 90 90 91 92 93 94 95 96 96 97 96 96 96 95 95 95 95 96 96 97 98 98 99 100 101 101 102 102 102 102 102 102 102 103 103 103 103 104 104 104 105 105 105 106 106 106 107 108 109 110 111 112 112 112 112 112 112 111 111 111 111 110 110 109 108 107 107 106 106 106 105 104 102 100 98 96 94 92 91 90 89 88 87
88 89 89 89 90 90 91 92 93 94 95 95 95 95 95 95 95 95 95 95 95 96 96 97 98 99 99 100 101 101 101 101 101 101 102 102 103 103 104 104 104 105 105 106 106 106 107 108 108 109 110 111 112 112 111 111 110 110 110 110 109 109 108 108 107 106 106 105 105 104 103 103 101 100 99 97 94 92 90 89 87 86 85 85 84
89 88 88 88 89 89 90 90 91 92 92 93 93 94 94 94 95 95 95 95 95 95 96 96 97 97 98 99 99 100 100 100 101 101 102 102 103 103 104 104 105 105 106 106 107 108 108 109 110 111 112 112 111 111 110 109 108 108 108 108 107 107 106 105 105 104 103 103 102 100 99 98 97 96 95 93 91 89 88 86 84 83 83 83 82
89 88 88 88 89 89 89 89 90 90 91 91 91 92 92 93 93 93 94 94 95 95 95 95 96 96 97 97 98 98 99 99 100 100 101 101 102 103 103 104 105 106 106 107 108 109 110 111 111 111 111 111 110 109 108 107 106 106 106 105 105 105 104 103 102 101 100 99 97 96 95 94 93 93 92 90 88 86 85 83 82 81 81 81 80
88 89 89 89 89 89 89 90 90 90 90 90 91 91 91 91 91 91 91 92 92 93 94 94 94 95 95 96 96 97 97 98 99 99 100 101 101 102 103 104 105 106 107 108 109 110 111 111 110 110 109 108 107 106 105 105 104 104 103 103 103 102 101 100 99 97 96 95 94 93 92 91 91 90 88 87 85 84 82 81 80 80 79 79 78
89 89 89 89 89 89 89 90 90 91 91 91 91 91 91 91 91 90 90 91 91 92 92 93 93 94 94 94 95 96 96 97 98 99 99 100 101 102 103 104 106 107 108 109 109 109 109 108 108 107 106 106 105 104 103 103 103 102 102 101 100 99 98 96 95 94 92 91 90 90 89 89 87 86 85 84 83 82 81 80 79 78 77 76 75
Wind_Direction
289 288 288 289 289 290 291 291 291 291 292 292 294 295 296 295 296 296 296 295 295 295 294 294 294 294 293 293 292 292 291 290 290 290 290 289 289 289 289 289 289 289 290 291 291 292 292 293 294 294 294 294 294 294 294 294 294 295 295 295 295 295 296 296 297 298 299 299 300 300 301 302 302 302 302 303 304 304 304 304 304 305 305 304 303
286 286 286 287 288 289 290 290 291 291 291 292 293 294 294 294 295 295 295 295 295 295 295 295 295 294 294 293 292 292 291 291 291 290 290 290 289 289 289 289 289 289 289 290 290 291 291 292 293 293 293 293 293 293 294 294 294 294 295 295 295 295 295 296 297 297 298 298 299 300 301 301 301 301 302 302 303 303 303 303 304 304 304 303 303
286 286 286 287 289 290 291 291 291 291 291 291 291 291 292 294 295 295 294 294 295 295 295 296 295 295 295 294 293 293 292 292 292 291 291 290 289 288 288 288 288 288 288 288 289 290 290 291 292 292 292 292 293 293 293 294 294 294 294 294 294 294 295 296 296 297 297 298 299 300 300 300 300 301 302 302 302 302 302 303 304 304 303 303 303
286 287 288 289 291 291 291 290 290 289 289 289 290 291 293 294 295 295 295 295 295 295 295 295 295 295 295 295 294 294 294 293 293 292 291 289 288 287 287 287 287 287 287 287 288 288 289 290 291 291 292 292 292 292 293 293 294 294 294 294 294 294 295 295 295 296 297 298 298 299 299 300 300 301 301 301 301 301 302 303 303 303 303 303 304
286 288 289 290 291 290 289 289 289 288 288 288 290 292 294 295 295 295 295 296 296 295 295 295 295 294 294 294 294 294 294 294 293 292 291 290 288 287 286 286 286 286 286 286 287 287 288 290 290 291 291 292 292 292 293 293 294 294 293 293 294 294 294 295 295 296 297 298 298 299 299 299 300 300 300 300 300 301 302 302 302 302 303 303 303
287 288 288 288 288 288 288 287 287 288 288 289 291 293 294 295 295 295 296 296 295 295 295 294 294 294 294 294 294 294 294 294 293 292 291 290 289 288 287 286 285 285 286 286 287 288 289 290 290 291 291 291 291 292 293 293 293 293 293 294 294 294 294 295 296 297 298 298 298 298 299 299 299 299 299 299 300 301 301 302 302 303 303 303 304
286 286 286 286 286 286 286 287 288 288 289 290 292 293 294 294 295 295 295 295 294 294 294 294 294 294 293 293 293 293 293 292 292 291 290 290 289 288 287 286 286 286 286 287 287 288 288 289 289 290 290 291 291 292 292 293 293 293 293 293 294 294 295 296 297 297 298 298 298 298 298 298 298 298 299 300 300 301 301 302 302 303 303 304 304
285 286 286 287 287 287 287 287 288 288 289 290 292 293 293 294 293 293 293 293 293 293 293 293 293 293 293 293 293 293 292 291 291 290 290 289 288 287 287 286 286 286 286 287 287 288 288 289 289 290 290 291 291 292 293 293 293 293 293 294 294 295 296 297 297 297 297 298 298 298 298 298 298 298 299 300 300 301 301 302 302 303 303 304 304
286 287 287 287 287 287 287 288 288 288 289 290 291 292 292 292 292 293 293 293 293 293 293 293 293 293 292 292 292 292 291 291 290 290 289 289 288 287 287 286 286 286 287 287 288 288 289 289 290 290 291 291 292 293 293 293 293 294 294 294 295 296 296 297 297 297 297 297 297 297 297 298 298 299 300 300 300 301 302 302 302 303 303 304 305
285 285 286 286 286 287 287 288 288 289 289 290 290 291 291 291 292 292 293 293 293 293 293 292 292 292 291 291 291 291 290 290 289 289 288 288 288 287 287 287 287 287 288 288 289 289 290 290 291 291 291 292 292 293 293 293 293 293 294 294 295 295 296 296 296 296 296 296 296 297 297 298 298 299 300 300 300 301 301 301 302 303 303 304 304
283 284 284 285 285 286 287 287 288 288 289 290 290 291 291 292 292 293 293 293 292 292 292 291 291 291 290 290 290 290 289 289 289 288 288 287 287 287 287 287 288 288 289 289 289 290 290 291 291 291 292 292 292 292 292 292 293 293 293 294 294 294 294 294 294 295 295 295 296 296 297 298 298 298 299 300 300 300 301 301 302 303 303 304 304
284 284 285 285 286 286 287 287 288 288 289 290 291 291 291 292 292 292 292 291 291 291 290 290 290 290 290 290 290 290 289 289 289 288 288 288 287 287 287 287 288 288 288 289 289 289 290 290 290 291 291 291 291 291 291 291 291 292 292 292 292 292 292 293 293 294 294 295 296 297 297 297 298 298 299 299 300 300 300 301 302 302 303 303 303
285 285 286 286 286 287 287 288 288 289 290 290 290 291 291 291 291 291 290 290 290 290 289 289 290 290 290 290 291 291 291 290 290 290 289 289 288 288 287 287 288 288 288 288 289 289 289 290 290 290 290 290 290 290 290 291 291 291 291 291 291 291 292 292 293 293 294 295 296 296 296 297 297 298 298 299 299 300 300 301 302 302 303 303 304
285 285 286 286 287 287 288 288 289 289 289 290 290 290 290 290 290 289 289 289 289 289 289 289 289 289 290 291 291 292 292 291 290 290 290 289 289 289 289 289 288 288 288 289 289 289 289 289 290 290 290 290 290 290 290 290 290 290 290 290 291 291 291 292 292 293 293 294 295 295 296 296 297 298 298 299 299 300 300 301 301 302 303 303 304
284 284 285 285 286 287 288 288 288 288 288 288 288 288 288 288 288 288 287 287 287 287 288 288 288 289 289 290 291 292 291 290 289 289 288 289 289 289 289 289 289 289 289 289 288 288 288 288 289 288 288 288 288 288 289 289 289 289 289 290 290 291 291 292 292 293 293 294 294 295 296 297 297 298 298 299 299 300 300 300 301 302 303 303 303
283 284 284 285 285 286 286 286 287 287 287 286 286 286 286 286 286 286 286 286 286 286 286 287 287 288 289 290 290 290 290 289 288 287 287 287 287 287 288 288 288 288 288 288 288 287 287 287 288 288 287 287 288 288 288 289 289 289 290 290 291 291 292 293 293 294 294 295 295 296 297 297 297 298 298 298 299 299 300 300 301 302 302 302 303
282 283 283 284 284 284 284 284 284 284 284 284 284 284 284 284 284 284 284 285 285 285 286 286 287 288 289 289 290 290 290 289 288 288 287 287 287 287 287 287 287 287 287 287 287 287 287 288 288 288 288 288 288 289 289 290 290 290 291 292 292 293 294 294 294 295 295 296 296 296 297 297 297 297 298 298 298 299 300 301 301 301 302 303 304
281 282 282 282 282 282 282 282 282 282 282 282 282 282 282 283 283 284 284 285 286 287 287 288 288 289 290 290 291 291 291 290 290 289 289 288 288 288 288 288 288 288 289 289 289 289 289 289 289 290 290 290 290 291 291 291 292 292 292 293 293 294 294 295 295 295 296 296 296 296 296 296 296 297 297 297 298 299 300 300 301 301 303 304 305
279 280 280 280 280 280 280 280 280 280 280 280 281 282 283 284 284 285 286 287 287 288 289 289 290 290 290 291 291 291 291 291 291 291 291 290 290 290 290 290 290 291 291 291 291 291 291 291 291 292 292 292 292 292 293 293 293 293 293 293 294 294 294 295 295 295 295 295 295 295 295 295 296 296 296 297 298 299 300 301 302 303 304 305 306
277 277 277 278 278 278 278 278 279 279 280 281 282 283 284 285 286 287 288 288 289 290 290 291 291 291 292 292 292 293 293 293 293 293 293 293 293 292 292 292 292 292 292 292 292 292 292 292 292 292 293 293 293 293 293 293 293 293 293 293 294 294 294 294 294 294 294 294 294 294 294 295 295 296 297 298 299 300 301 302 303 304 305 306 307
274 275 275 276 276 277 277 278 279 280 281 282 283 284 285 286 288 289 289 290 290 291 291 292 292 293 293 293 294 294 294 294 294 294 293 293 293 293 293 292 292 292 292 292 292 292 292 292 292 292 292 292 292 292 292 292 292 292 293 293 293 293 293 293 293 293 293 293 293 293 294 295 295 296 297 298 299 300 302 303 304 305 306 307 308
274 274 275 275 276 277 278 279 280 281 282 283 284 285 286 288 289 290 290 290 291 291 291 291 292 292 292 293 293 293 293 292 292 292 292 292 292 292 291 291 291 291 291 291 291 291 291 291 291 291 291 291 291 291 291 291 292 292 292 293 293 293 292 292 292 292 292 292 293 294 294 295 296 297 298 299 300 301 303 304 305 306 307 307 308
276 276 277 277 278 280 281 282 283 284 285 286 287 288 288 289 289 290 290 290 290 290 290 291 291 291 291 291 291 291 291 291 290 290 290 290 290 290 290 290 290 290 290 290 290 290 290 290 290 290 290 290 290 291 291 291 291 292 292 292 292 291 291 291 291 291 292 292 293 294 295 296 296 297 298 300 301 303 304 305 306 307 307 307 308
280 281 282 282 283 284 285 286 287 288 288 288 288 289 289 289 289 289 289 289 289 290 290 290 290 290 290 290 290 290 290 290 290 289 289 289 288 288 288 288 288 288 289 289 289 289 289 289 290 290 290 290 290 290 290 290 290 290 290 290 290 290 290 291 291 291 292 293 293 294 295 296 297 298 300 301 302 304 305 305 306 307 307 307 307
285 286 286 286 287 287 287 288 288 288 288 288 288 288 288 288 287 287 288 288 288 288 289 289 289 289 290 290 290 289 289 289 289 289 288 288 288 288 288 288 288 288 289 289 289 289 289 289 290 290 290 290 289 290 289 289 289 289 289 289 290 290 290 290 291 291 292 293 294 295 296 297 298 299 301 302 303 304 305 305 306 306 306 306 306
286 286 286 286 287 287 287 287 287 287 287 287 287 287 287 286 286 286 286 286 287 287 287 288 288 288 288 288 288 288 288 288 288 288 288 288 288 288 288 288 289 289 289 289 289 289 289 289 289 289 289 289 289 289 289 289 289 289 289 289 289 290 290 291 291 292 293 294 295 296 297 298 299 300 302 303 303 304 305 305 305 305 306 306 306
284 284 284 284 285 285 285 285 285 285 285 285 285 285 285 284 284 284 285 285 285 286 286 286 286 286 287 287 287 287 287 287 287 287 287 287 287 288 288 288 288 288 289 289 289 289 289 289 289 288 288 288 288 288 288 288 288 288 289 289 290 290 291 291 292 293 294 295 296 297 298 299 300 301 302 302 303 304 304 304 305 305 305 306 306
281 282 282 282 283 283 283 283 283 284 284 284 284 283 283 283 283 283 284 284 284 284 285 285 285 285 285 286 286 286 286 286 286 286 286 286 287 287 287 287 287 288 288 288 288 288 288 288 288 288 288 288 288 288 288 288 288 288 289 290 290 291 292 292 293 294 295 296 297 298 299 299 300 301 302 302 303 303 304 304 304 305 305 305 305
280 280 280 281 281 282 282 282 282 282 283 282 282 282 281 282 282 282 283 283 283 284 284 284 284 284 284 284 285 285 285 285 285 286 286 286 286 286 286 286 287 287 287 287 287 287 287 287 287 287 287 287 287 288 288 288 289 289 289 290 291 292 292 293 294 295 296 297 297 298 299 299 300 301 302 302 303 303 304 304 304 304 304 304 305
279 279 280 280 281 281 281 282 282 282 282 282 281 281 281 281 281 282 282 282 283 283 283 283 283 283 284 284 284 284 284 285 285 285 285 285 285 285 285 285 285 285 286 286 286 286 286 286 286 287 287 287 287 288 288 289 289 290 290 291 292 293 294 294 295 295 296 297 297 298 299 300 300 301 301 302 302 303 303 303 303 303 304 304 305
279 279 279 280 280 281 281 282 282 281 281 281 281 281 281 281 281 281 282 282 283 283 283 283 283 283 283 283 283 284 284 284 284 284 284 284 284 284 284 284 284 284 285 285 285 285 286 286 286 287 287 288 288 288 289 289 290 291 292 292 293 293 294 295 295 296 297 297 298 299 299 300 300 301 301 302 302 302 302 303 303 303 304 305 305
278 278 278 279 279 280 280 281 280 280 280 280 281 281 281 281 281 281 282 282 282 283 283 282 283 283 283 283 283 283 283 283 283 283 283 283 283 283 283 283 283 284 284 284 285 285 286 286 287 287 288 289 289 289 290 290 291 291 292 292 293 294 294 295 295 296 297 298 298 299 299 300 300 301 301 302 302 302 302 303 303 304 304 305 305
278 278 278 279 279 279 279 279 279 280 280 280 280 280 280 281 282 282 283 283 283 283 283 283 283 283 283 283 283 283 283 283 283 283 283 283 283 283 283 283 283 284 285 285 286 286 287 287 288 288 289 289 290 290 290 291 291 291 292 292 293 294 294 295 295 296 297 297 298 299 299 300 300 301 301 301 301 302 302 303 303 304 304 305 306
279 279 279 279 279 279 279 279 279 279 279 279 279 280 281 282 283 283 283 283 283 283 284 284 284 284 283 283 283 283 283 283 283 283 283 283 283 284 284 284 285 285 286 286 287 287 288 288 288 289 289 289 290 290 290 291 291 292 292 292 293 293 294 294 295 296 297 297 298 299 299 300 300 300 300 301 301 302 303 303 303 304 305 305 306
279 279 279 279 279 279 279 279 279 279 279 279 280 281 281 282 282 283 283 283 283 283 284 284 284 284 284 284 284 284 284 285 285 285 285 285 286 286 286 286 287 287 287 287 288 288 288 289 289 290 290 290 291 291 291 292 292 292 292 293 293 294 294 295 296 296 297 297 298 298 299 299 300 300 300 301 302 302 303 303 304 304 305 306 306
279 279 279 279 279 278 278 278 278 278 278 279 280 281 281 282 282 282 282 282 283 283 284 284 285 285 286 286 286 287 287 287 287 287 288 288 288 288 288 288 288 288 288 288 289 289 289 289 290 290 290 290 291 291 291 292 292 292 293 293 294 294 295 295 296 296 297 297 298 298 299 299 300 300 301 301 301 302 303 303 304 304 305 306 306
278 278 279 279 278 278 278 278 278 278 278 279 280 280 281 281 281 282 282 282 283 283 284 284 285 285 286 286 287 287 287 287 287 287 288 288 288 288 288 287 287 287 287 288 288 288 289 289 289 289 290 290 291 291 291 292 292 292 293 293 294 294 295 295 296 296 297 297 298 298 299 299 300 300 301 301 302 302 303 303 304 304 305 305 305
277 277 278 278 278 278 278 278 278 278 279 279 280 279 279 280 280 281 281 282 282 283 283 283 284 284 284 285 285 285 285 286 286 286 286 286 286 286 287 287 287 287 287 287 287 288 288 289 289 290 290 290 291 291 292 292 292 293 293 293 294 294 295 295 296 296 297 297 298 298 299 299 300 301 301 301 302 302 303 303 304 304 304 304 304
277 277 277 277 277 277 277 277 277 278 279 279 279 279 279 280 280 281 281 281 281 281 281 282 282 282 282 283 283 283 283 284 284 284 285 285 285 286 286 286 286 287 287 287 288 288 288 289 289 290 290 291 291 291 292 292 292 293 293 293 294 294 295 295 296 296 297 298 298 299 300 300 300 301 301 301 302 302 302 303 303 303 303 303 304
277 277 277 277 277 277 277 277 277 278 278 279 279 279 280 280 280 280 280 280 280 281 281 281 281 282 282 283 283 283 283 284 284 285 285 286 286 286 286 286 287 287 287 288 288 289 289 289 290 290 290 291 291 291 292 292 292 293 293 293 294 294 295 295 296 297 298 299 299 300 300 300 300 301 301 301 301 302 302 302 302 302 303 303 304
278 278 277 277 277 276 276 276 277 278 279 279 280 280 280 280 280 280 280 280 280 281 281 282 282 283 283 283 284 284 284 285 285 286 286 286 286 286 287 287 287 288 288 288 288 289 289 289 290 290 290 291 291 291 292 292 292 293 293 293 294 294 295 296 297 298 298 299 299 299 299 300 300 300 300 301 301 301 301 301 301 302 302 303 303
278 278 278 277 277 277 277 277 277 278 278 279 280 280 280 280 280 280 280 280 281 281 282 282 283 283 283 283 283 284 284 284 285 285 285 286 286 286 286 287 287 287 288 288 288 289 289 289 290 290 290 291 291 291 292 292 292 293 293 293 294 295 296 297 298 298 298 298 298 299 299 299 300 300 300 301 301 300 300 301 301 302 302 303 303
277 278 277 277 277 277 278 278 278 278 278 278 279 279 280 280 280 280 280 280 281 281 281 282 282 283 283 283 283 284 284 285 285 285 285 285 286 286 286 287 287 288 288 288 289 289 289 290 290 290 290 290 291 291 291 292 292 293 293 294 295 296 297 297 298 298 298 298 298 299 299 299 300 300 300 300 300 300 300 301 302 302 302 303 303
276 276 276 276 276 276 277 278 278 279 279 279 279 279 280 280 280 280 280 281 281 281 282 282 282 283 283 283 283 284 284 284 285 285 285 286 286 287 287 288 288 288 288 289 289 289 289 289 289 290 290 290 291 291 291 292 292 293 294 295 296 297 297 297 297 297 298 298 298 299 299 299 299 299 299 299 299 300 300 301 301 302 302 302 303
274 274 275 275 275 276 276 276 277 278 279 279 280 280 280 280 280 281 281 282 282 282 283 283 283 283 283 283 283 284 284 285 285 286 286 287 287 288 288 288 288 288 288 289 289 289 289 290 290 290 291 291 291 291 291 292 293 294 295 295 296 296 296 296 297 297 298 298 299 299 299 299 299 299 299 299 300 300 301 301 301 302 302 302 303
274 274 274 274 274 275 275 276 277 277 278 279 279 280 280 281 281 281 281 282 282 283 283 283 283 283 283 283 284 284 285 286 286 287 287 287 288 288 288 288 289 289 289 289 290 290 290 290 290 290 290 290 291 291 292 292 293 294 295 295 295 295 296 296 297 298 298 298 299 298 298 298 298 299 299 299 299 300 301 301 301 302 302 302 303
274 274 274 275 275 275 275 276 276 277 278 278 279 280 280 281 281 281 282 282 282 282 282 282 282 283 283 284 284 285 286 286 287 287 287 288 288 288 289 289 289 290 290 290 290 290 290 290 290 290 290 290 290 291 292 293 294 294 294 295 295 296 297 297 298 298 298 298 298 298 298 298 298 298 298 299 299 300 300 301 301 302 302 302 302
275 275 275 275 275 275 275 276 276 277 277 278 279 279 280 280 281 281 282 282 282 282 283 283 283 284 284 284 285 285 286 286 287 287 287 288 288 288 289 289 289 289 290 290 290 289 289 289 289 289 289 290 291 292 292 293 294 294 295 295 296 297 297 298 298 298 298 298 297 297 298 298 298 298 298 299 299 300 301 301 302 302 302 302 302
275 275 276 276 276 276 276 276 276 277 277 277 278 278 278 279 279 280 280 281 282 282 282 283 283 283 283 284 284 285 285 286 286 286 287 287 287 288 288 288 288 288 288 288 288 287 287 287 288 289 290 291 291 292 293 293 294 295 296 296 297 297 297 297 297 297 297 297 297 297 298 298 298 298 298 299 300 300 301 301 302 302 302 301 301
275 275 275 275 276 276 277 277 277 277 278 278 278 278 279 279 279 279 280 280 281 281 282 282 282 283 283 283 284 284 285 285 286 286 286 287 287 287 287 287 287 287 287 286 286 287 287 288 289 290 291 291 292 293 294 295 295 296 296 297 297 296 297 297 297 297 297 297 298 298 298 298 298 298 298 299 300 300 301 301 301 301 301 300 300
274 274 275 275 275 276 277 277 278 278 279 279 279 279 280 280 281 281 281 282 282 282 283 283 283 284 284 285 285 285 286 286 286 286 287 287 287 287 287 286 286 286 286 286 287 287 288 289 290 291 292 293 294 295 295 296 296 296 296 296 296 296 297 297 297 297 297 297 298 298 298 298 298 298 299 299 300 300 301 300 300 300 300 300 300
Height
10682 10678 10675 10673 10670 10669 10666 10663 10659 10654 10650 10649 10650 10652 10651 10651 10651 10649 10646 10643 10640 10638 10635 10632 10631 10629 10626 10624 10621 10619 10616 10613 10610 10607 10605 10602 10598 10594 10590 10587 10584 10582 10578 10575 10572 10569 10566 10563 10559 10554 10550 10546 10543 10540 10539 10536 10531 10525 10520 10515 10510 10505 10499 10493 10488 10482 10476 10470 10465 10460 10455 10449 10443 10437 10432 10427 10422 10419 10413 10406 10402 10399 10393 10386 10378
10673 10671 10668 10666 10664 10662 10660 10656 10652 10647 10642 10641 10641 10642 10641 10641 10642 10641 10637 10634 10631 10629 10625 10622 10620 10619 10617 10614 10612 10609 10607 10604 10601 10598 10595 10592 10588 10585 10581 10577 10574 10572 10569 10565 10562 10559 10556 10553 10549 10544 10539 10535 10531 10528 10527 10525 10522 10517 10511 10506 10500 10495 10489 10484 10479 10473 10467 10461 10455 10450 10445 10438 10431 10425 10421 10416 10411 10406 10401 10394 10390 10386 10380 10372 10364
10664 10662 10661 10659 10658 10656 10652 10649 10645 10640 10634 10632 10631 10632 10633 10633 10633 10631 10628 10625 10623 10620 10617 10613 10610 10608 10606 10603 10601 10599 10596 10594 10591 10588 10585 10581 10578 10575 10571 10567 10564 10561 10559 10555 10552 10549 10545 10542 10538 10534 10530 10525 10521 10517 10514 10513 10510 10506 10501 10495 10489 10484 10479 10474 10469 10464 10458 10452 10446 10440 10434 10427 10420 10413 10409 10405 10400 10394 10388 10383 10378 10372 10365 10357 10350
10654 10653 10653 10651 10650 10648 10644 10640 10637 10632 10627 10623 10621 10622 10624 10625 10624 10622 10619 10617 10614 10611 10608 10605 10602 10598 10596 10593 10590 10588 10585 10582 10580 10576 10573 10570 10567 10565 10561 10557 10553 10549 10547 10545 10541 10537 10533 10530 10526 10522 10518 10514 10510 10506 10502 10500 10498 10495 10490 10483 10477 10473 10468 10463 10458 10453 10447 10442 10436 10430 10423 10416 10408 10402 10396 10392 10388 10382 10378 10373 10366 10358 10350 10343 10335
10645 10645 10645 10644 10641 10638 10634 10630 10627 10623 10619 10614 10612 10613 10615 10614 10612 10611 10610 10607 10604 10601 10599 10596 10593 10589 10586 10582 10580 10577 10574 10571 10568 10564 10561 10558 10556 10553 10550 10547 10543 10538 10535 10533 10530 10526 10522 10518 10514 10510 10506 10502 10498 10494 10491 10488 10485 10481 10476 10471 10466 10461 10457 10452 10447 10442 10436 10430 10423 10417 10411 10404 10397 10390 10385 10381 10376 10371 10367 10362 10353 10345 10338 10331 10321
10637 10637 10637 10635 10632 10629 10624 10620 10616 10613 10608 10605 10604 10605 10605 10603 10602 10600 10599 10597 10594 10590 10588 10586 10583 10579 10576 10573 10569 10566 10563 10559 10556 10552 10549 10547 10545 10542 10539 10536 10533 10528 10524 10521 10519 10515 10511 10507 10503 10498 10494 10490 10486 10483 10480 10476 10471 10467 10463 10458 10454 10449 10445 10440 10435 10430 10424 10417 10410 10403 10397 10391 10385 10378 10372 10369 10365 10360 10355 10350 10341 10331 10324 10319 10309
10628 10627 10626 10625 10623 10619 10615 10610 10607 10603 10598 10596 10596 10596 10594 10593 10591 10589 10589 10586 10582 10579 10577 10574 10571 10568 10565 10562 10558 10555 10552 10549 10545 10542 10539 10536 10534 10531 10528 10525 10522 10518 10513 10510 10508 10504 10500 10497 10493 10489 10484 10480 10476 10472 10469 10464 10459 10454 10450 10446 10441 10437 10433 10428 10423 10418 10411 10404 10397 10391 10384 10377 10370 10364 10359 10356 10352 10346 10341 10337 10331 10320 10310 10303 10295
10616 10615 10614 10614 10611 10608 10605 10601 10598 10593 10589 10587 10586 10586 10584 10582 10580 10578 10577 10575 10571 10567 10565 10562 10559 10556 10553 10550 10547 10544 10541 10537 10534 10531 10528 10526 10523 10520 10517 10514 10510 10507 10502 10499 10496 10493 10490 10486 10482 10479 10475 10470 10466 10462 10457 10452 10447 10442 10437 10433 10429 10425 10421 10416 10410 10404 10398 10391 10384 10378 10372 10364 10356 10350 10346 10341 10337 10331 10324 10322 10319 10310 10300 10291 10280
10605 10603 10602 10601 10598 10596 10595 10591 10587 10584 10580 10578 10577 10575 10574 10571 10568 10566 10565 10563 10559 10556 10553 10550 10547 10544 10541 10538 10535 10532 10529 10526 10523 10520 10518 10514 10511 10509 10506 10502 10499 10496 10492 10488 10484 10481 10478 10475 10472 10468 10464 10460 10456 10451 10445 10439 10434 10429 10424 10420 10416 10413 10408 10403 10397 10392 10385 10379 10372 10365 10359 10351 10344 10338 10332 10327 10322 10316 10310 10305 10302 10297 10289 10281 10268
10596 10594 10591 10589 10585 10584 10584 10580 10577 10574 10571 10568 10567 10565 10563 10560 10557 10554 10552 10550 10547 10543 10541 10538 10535 10532 10529 10527 10524 10521 10518 10514 10512 10509 10506 10503 10501 10498 10495 10491 10487 10484 10481 10478 10473 10469 10465 10463 10460 10457 10453 10450 10446 10440 10434 10427 10422 10417 10413 10409 10404 10400 10396 10391 10385 10380 10374 10367 10360 10353 10346 10339 10332 10325 10318 10313 10308 10302 10295 10289 10286 10282 10275 10269 10259
10585 10583 10581 10578 10574 10573 10572 10569 10566 10563 10560 10557 10555 10553 10550 10548 10545 10542 10540 10537 10534 10531 10528 10525 10522 10520 10518 10515 10513 10509 10506 10503 10501 10498 10494 10492 10490 10487 10484 10480 10476 10473 10469 10466 10463 10458 10454 10451 10448 10445 10442 10439 10435 10429 10423 10417 10411 10406 10402 10398 10393 10389 10384 10379 10374 10368 10362 10355 10348 10341 10334 10328 10320 10313 10306 10301 10295 10288 10281 10275 10270 10267 10261 10254 10248
10569 10569 10568 10565 10563 10562 10559 10557 10555 10551 10548 10545 10542 10540 10538 10536 10533 10530 10528 10525 10522 10519 10516 10513 10510 10508 10506 10503 10501 10498 10495 10492 10489 10486 10483 10481 10478 10475 10472 10469 10465 10462 10458 10455 10451 10448 10444 10440 10437 10434 10430 10426 10422 10417 10412 10406 10401 10396 10391 10387 10382 10377 10372 10367 10361 10356 10349 10342 10336 10328 10321 10314 10308 10301 10293 10288 10282 10275 10268 10261 10255 10252 10246 10238 10231
10554 10554 10552 10550 10549 10548 10546 10545 10542 10538 10535 10532 10529 10527 10525 10523 10521 10518 10515 10513 10510 10507 10504 10501 10499 10496 10494 10492 10489 10486 10483 10480 10477 10475 10472 10470 10467 10464 10461 10457 10454 10451 10447 10445 10441 10437 10433 10429 10426 10423 10419 10414 10409 10404 10399 10395 10390 10385 10380 10374 10369 10364 10359 10354 10348 10342 10335 10329 10323 10315 10307 10301 10296 10289 10280 10274 10269 10262 10254 10248 10241 10236 10230 10222 10214
10543 10541 10539 10537 10535 10534 10532 10531 10529 10526 10523 10520 10517 10515 10513 10511 10509 10506 10504 10501 10499 10496 10493 10490 10487 10484 10482 10480 10478 10475 10472 10469 10466 10463 10460 10458 10455 10452 10449 10445 10443 10439 10436 10433 10430 10426 10421 10418 10415 10412 10407 10401 10396 10391 10387 10383 10378 10372 10367 10362 10357 10351 10346 10341 10335 10329 10322 10315 10308 10301 10293 10288 10282 10275 10267 10259 10253 10247 10241 10234 10227 10221 10215 10208 10199
10531 10529 10527 10525 10523 10521 10519 10517 10515 10513 10511 10508 10506 10503 10501 10500 10498 10495 10493 10490 10488 10485 10482 10479 10477 10474 10471 10469 10466 10464 10461 10457 10455 10452 10450 10448 10445 10441 10437 10434 10431 10428 10424 10421 10418 10414 10410 10407 10403 10400 10395 10389 10384 10379 10375 10370 10365 10360 10354 10349 10344 10338 10333 10327 10321 10315 10308 10300 10294 10287 10280 10274 10267 10261 10253 10246 10239 10233 10227 10220 10213 10207 10202 10196 10187
10517 10515 10514 10513 10511 10509 10507 10505 10503 10501 10499 10497 10494 10491 10489 10488 10486 10484 10482 10480 10477 10474 10472 10469 10466 10463 10460 10458 10455 10453 10449 10446 10443 10440 10438 10437 10435 10431 10426 10422 10420 10416 10412 10408 10405 10401 10398 10394 10390 10386 10381 10376 10372 10367 10362 10357 10351 10346 10341 10336 10330 10324 10318 10312 10306 10299 10292 10285 10279 10273 10266 10260 10253 10247 10240 10233 10226 10220 10213 10206 10199 10192 10187 10182 10175
10503 10501 10501 10499 10498 10496 10495 10493 10491 10489 10487 10485 10482 10480 10478 10477 10475 10473 10471 10468 10465 10463 10460 10457 10454 10452 10449 10446 10443 10441 10437 10434 10431 10429 10426 10424 10422 10418 10415 10411 10407 10403 10399 10396 10392 10388 10384 10380 10376 10371 10366 10362 10358 10353 10348 10343 10337 10332 10327 10321 10315 10309 10303 10297 10290 10283 10277 10271 10265 10258 10252 10246 10240 10233 10226 10219 10213 10207 10200 10194 10186 10178 10172 10167 10161
10490 10488 10488 10486 10484 10483 10482 10480 10479 10477 10475 10473 10471 10469 10466 10464 10463 10461 10458 10456 10453 10450 10448 10445 10442 10439 10437 10434 10432 10428 10425 10421 10419 10417 10414 10411 10408 10404 10401 10398 10393 10389 10385 10381 10378 10374 10370 10366 10361 10356 10351 10347 10343 10338 10333 10327 10322 10317 10312 10306 10300 10294 10288 10281 10274 10268 10262 10256 10250 10243 10237 10232 10225 10219 10213 10206 10199 10192 10186 10179 10172 10164 10157 10150 10143
10479 10476 10475 10473 10471 10470 10469 10468 10466 10464 10463 10461 10459 10457 10454 10451 10449 10447 10445 10443 10440 10436 10434 10431 10429 10426 10424 10422 10419 10415 10412 10408 10405 10403 10400 10398 10394 10390 10387 10383 10378 10374 10370 10367 10363 10359 10355 10351 10346 10341 10337 10332 10328 10323 10317 10312 10307 10302 10296 10290 10284 10279 10272 10266 10260 10254 10247 10241 10235 10229 10223 10217 10211 10205 10199 10192 10184 10177 10170 10163 10155 10148 10140 10133 10125
10467 10465 10463 10461 10459 10458 10456 10455 10454 10451 10450 10448 10446 10444 10441 10438 10436 10433 10431 10428 10426 10423 10420 10417 10415 10412 10409 10407 10404 10401 10398 10394 10390 10387 10385 10382 10379 10375 10372 10368 10363 10359 10355 10352 10348 10344 10340 10336 10331 10327 10322 10318 10313 10308 10302 10297 10292 10286 10281 10275 10270 10264 10257 10251 10245 10239 10233 10227 10221 10215 10209 10203 10197 10191 10184 10177 10169 10162 10154 10147 10139 10132 10125 10117 10109
10455 10453 10452 10449 10447 10445 10444 10442 10440 10438 10437 10435 10433 10430 10427 10424 10422 10419 10416 10413 10411 10408 10406 10403 10401 10398 10396 10393 10390 10387 10384 10381 10377 10373 10370 10367 10364 10361 10357 10353 10349 10345 10341 10337 10334 10330 10325 10321 10317 10312 10308 10303 10298 10293 10288 10283 10277 10271 10266 10260 10255 10249 10243 10237 10231 10225 10219 10214 10208 10202 10196 10189 10183 10176 10169 10162 10155 10147 10140 10132 10124 10117 10110 10102 10094
10442 10441 10440 10437 10435 10432 10430 10428 10426 10424 10422 10420 10417 10415 10412 10410 10407 10404 10401 10398 10396 10394 10392 10389 10387 10385 10382 10380 10377 10374 10371 10368 10365 10361 10357 10354 10350 10346 10342 10339 10335 10331 10328 10323 10319 10315 10311 10306 10302 10298 10293 10288 10283 10278 10273 10268 10262 10256 10251 10246 10240 10234 10228 10223 10217 10211 10206 10200 10194 10189 10183 10176 10169 10163 10156 10149 10142 10134 10126 10118 10111 10103 10095 10087 10079
10426 10426 10424 10423 10421 10418 10415 10413 10410 10408 10407 10404 10401 10399 10396 10394 10391 10388 10385 10383 10381 10379 10377 10374 10373 10371 10368 10366 10363 10361 10358 10355 10352 10349 10345 10341 10337 10333 10328 10324 10321 10317 10313 10309 10305 10300 10296 10292 10288 10283 10278 10274 10268 10263 10258 10253 10247 10242 10237 10231 10226 10220 10214 10209 10204 10198 10193 10187 10181 10175 10169 10163 10156 10149 10142 10135 10128 10120 10112 10105 10097 10089 10080 10072 10063
10409 10408 10407 10405 10404 10402 10399 10397 10394 10393 10390 10388 10386 10383 10381 10378 10374 10371 10369 10367 10365 10363 10361 10359 10357 10355 10352 10350 10347 10345 10343 10339 10336 10333 10330 10326 10323 10319 10314 10310 10306 10302 10298 10294 10290 10286 10282 10278 10273 10269 10264 10259 10254 10249 10244 10239 10234 10228 10223 10218 10212 10207 10201 10196 10190 10184 10179 10174 10168 10162 10156 10149 10143 10136 10129 10122 10115 10107 10099 10091 10084 10076 10068 10059 10051
10392 10391 10390 10389 10387 10385 10384 10381 10379 10377 10374 10372 10370 10367 10364 10361 10358 10355 10353 10351 10349 10348 10346 10344 10341 10339 10336 10334 10331 10328 10325 10323 10320 10317 10313 10309 10306 10302 10298 10294 10290 10286 10282 10278 10274 10270 10266 10262 10258 10253 10248 10244 10239 10235 10230 10225 10220 10215 10210 10204 10199 10193 10188 10182 10176 10171 10166 10160 10154 10149 10142 10135 10129 10122 10116 10109 10101 10094 10087 10078 10071 10063 10055 10046 10037
10376 10375 10374 10373 10371 10370 10368 10366 10364 10361 10358 10355 10353 10349 10346 10343 10340 10338 10337 10336 10334 10333 10331 10329 10326 10323 10321 10318 10314 10311 10309 10305 10302 10299 10295 10291 10287 10284 10280 10276 10273 10269 10266 10262 10258 10254 10250 10247 10242 10238 10233 10229 10225 10221 10216 10211 10206 10201 10196 10191 10185 10179 10174 10169 10163 10158 10152 10146 10141 10135 10128 10121 10115 10108 10102 10095 10089 10082 10074 10066 10058 10050 10042 10033 10023
10361 10360 10359 10358 10357 10355 10352 10350 10348 10345 10343 10339 10335 10332 10328 10324 10322 10321 10321 10320 10319 10317 10315 10313 10310 10307 10305 10301 10298 10295 10292 10288 10285 10281 10278 10274 10270 10267 10263 10260 10256 10253 10249 10246 10242 10239 10235 10231 10227 10223 10219 10214 10210 10206 10202 10197 10192 10187 10182 10177 10171 10166 10161 10155 10150 10144 10138 10132 10127 10121 10114 10108 10101 10095 10088 10082 10075 10068 10061 10054 10046 10038 10029 10020 10010
10346 10345 10343 10342 10341 10339 10337 10334 10332 10329 10326 10322 10318 10314 10310 10306 10304 10305 10304 10304 10303 10301 10298 10296 10294 10291 10288 10285 10281 10278 10275 10272 10268 10265 10261 10258 10255 10251 10247 10244 10241 10238 10234 10230 10227 10224 10220 10216 10212 10208 10204 10200 10196 10192 10187 10182 10178 10173 10168 10163 10157 10152 10147 10141 10135 10129 10124 10118 10112 10106 10100 10093 10087 10081 10075 10068 10061 10054 10047 10040 10033 10025 10016 10008 9999
10329 10328 10326 10325 10323 10321 10319 10317 10314 10312 10308 10304 10299 10294 10291 10289 10288 10288 10287 10286 10285 10283 10282 10279 10277 10274 10271 10268 10265 10262 10258 10255 10252 10248 10245 10242 10238 10235 10232 10229 10226 10222 10219 10215 10212 10208 10205 10201 10197 10193 10189 10185 10181 10177 10172 10168 10163 10158 10153 10148 10143 10138 10132 10126 10120 10115 10109 10103 10098 10092 10085 10079 10073 10067 10061 10054 10047 10041 10034 10027 10019 10011 10003 9995 9987
10312 10310 10308 10306 10304 10303 10301 10299 10296 10292 10287 10282 10278 10274 10272 10271 10271 10271 10270 10269 10267 10266 10264 10262 10259 10257 10254 10251 10248 10245 10242 10239 10236 10232 10229 10226 10223 10220 10217 10214 10210 10207 10203 10200 10197 10193 10189 10186 10182 10178 10174 10170 10166 10161 10157 10152 10148 10143 10138 10133 10128 10122 10117 10111 10105 10100 10095 10089 10084 10077 10071 10065 10058 10052 10046 10039 10033 10026 10020 10013 10006 9998 9990 9982 9974
10294 10292 10290 10288 10286 10285 10283 10281 10276 10271 10266 10262 10259 10257 10254 10253 10253 10253 10252 10251 10250 10248 10246 10243 10241 10239 10237 10234 10232 10229 10226 10224 10221 10217 10214 10211 10208 10205 10202 10199 10195 10191 10188 10185 10181 10178 10174 10170 10166 10162 10158 10154 10150 10146 10141 10137 10132 10128 10123 10118 10112 10107 10102 10097 10091 10085 10080 10074 10069 10062 10056 10050 10044 10037 10031 10024 10018 10011 10005 9998 9991 9984 9976 9969 9962
10275 10274 10272 10271 10270 10268 10265 10261 10256 10251 10247 10244 10242 10239 10236 10235 10235 10235 10235 10234 10233 10230 10228 10226 10224 10222 10220 10218 10215 10213 10211 10208 10205 10202 10199 10196 10193 10190 10186 10183 10180 10176 10173 10170 10166 10162 10159 10155 10151 10147 10143 10139 10134 10130 10126 10122 10117 10113 10108 10103 10098 10093 10087 10082 10076 10071 10065 10060 10054 10048 10042 10036 10030 10023 10016 10010 10003 9997 9991 9984 9977 9969 9962 9955 9948
10254 10254 10253 10252 10252 10250 10246 10242 10238 10234 10230 10226 10223 10221 10219 10218 10219 10218 10217 10215 10214 10212 10210 10208 10206 10204 10203 10201 10198 10196 10194 10192 10189 10187 10184 10181 10178 10175 10171 10168 10164 10161 10157 10154 10150 10146 10143 10139 10135 10131 10127 10124 10119 10115 10111 10107 10102 10098 10093 10088 10083 10078 10072 10067 10062 10057 10051 10045 10040 10034 10028 10022 10016 10009 10002 9995 9988 9982 9976 9969 9962 9955 9948 9941 9934
10234 10234 10234 10233 10232 10231 10228 10223 10219 10216 10212 10209 10206 10205 10204 10204 10203 10201 10199 10197 10195 10193 10192 10190 10188 10187 10185 10184 10182 10180 10177 10175 10173 10170 10167 10165 10162 10159 10156 10152 10149 10145 10142 10138 10135 10131 10127 10124 10120 10116 10113 10109 10105 10101 10096 10092 10088 10083 10078 10073 10069 10063 10058 10053 10048 10043 10038 10032 10026 10020 10014 10008 10002 9995 9987 9980 9974 9967 9961 9954 9948 9941 9934 9926 9920
10214 10215 10215 10214 10213 10212 10209 10205 10201 10198 10195 10192 10190 10190 10190 10189 10188 10186 10183 10180 10178 10176 10175 10173 10171 10170 10168 10166 10165 10163 10161 10158 10156 10153 10151 10148 10145 10142 10140 10136 10133 10129 10126 10123 10119 10115 10112 10108 10105 10101 10097 10093 10089 10085 10081 10077 10072 10068 10063 10059 10054 10049 10044 10039 10033 10029 10024 10018 10012 10006 10000 9994 9987 9980 9973 9966 9959 9953 9947 9940 9933 9927 9920 9913 9906
10195 10196 10196 10195 10194 10193 10191 10188 10185 10182 10179 10177 10176 10175 10174 10173 10172 10170 10168 10165 10163 10161 10159 10157 10155 10153 10151 10149 10147 10145 10143 10140 10138 10136 10134 10131 10128 10126 10124 10120 10117 10113 10110 10107 10103 10100 10096 10093 10089 10085 10082 10078 10074 10070 10066 10062 10058 10053 10049 10044 10039 10034 10029 10024 10019 10014 10009 10004 9998 9992 9985 9979 9973 9966 9959 9952 9945 9938 9932 9925 9919 9912 9906 9900 9893
10179 10178 10178 10177 10176 10175 10173 10170 10167 10165 10163 10163 10163 10161 10159 10157 10155 10154 10152 10150 10148 10146 10144 10142 10140 10138 10136 10134 10132 10130 10127 10125 10123 10121 10118 10115 10113 10111 10109 10105 10102 10099 10095 10092 10088 10085 10081 10078 10074 10071 10067 10063 10059 10055 10051 10047 10043 10038 10034 10029 10024 10019 10014 10009 10004 9999 9994 9988 9983 9977 9970 9964 9958 9951 9945 9938 9931 9925 9918 9911 9904 9898 9892 9886 9880
10164 10164 10163 10161 10160 10159 10156 10152 10149 10147 10148 10149 10149 10147 10145 10143 10141 10139 10137 10135 10133 10131 10129 10128 10126 10124 10122 10121 10119 10116 10114 10111 10109 10107 10104 10102 10099 10097 10094 10090 10087 10084 10080 10077 10073 10070 10066 10063 10059 10056 10052 10048 10044 10040 10036 10032 10027 10023 10018 10013 10008 10003 9998 9993 9988 9983 9978 9973 9967 9961 9955 9949 9943 9937 9930 9923 9917 9911 9904 9897 9891 9885 9879 9873 9867
10149 10149 10148 10147 10145 10143 10140 10137 10134 10132 10132 10133 10132 10131 10130 10129 10127 10125 10123 10121 10119 10117 10115 10113 10112 10110 10109 10108 10106 10103 10100 10098 10095 10093 10090 10088 10085 10082 10079 10076 10072 10069 10066 10062 10058 10055 10052 10048 10044 10040 10037 10033 10029 10025 10020 10016 10011 10006 10002 9997 9992 9987 9982 9977 9972 9967 9962 9957 9951 9945 9939 9933 9928 9922 9915 9909 9903 9896 9889 9883 9877 9872 9865 9859 9854
10134 10133 10133 10132 10130 10128 10124 10121 10119 10118 10117 10117 10116 10116 10116 10114 10113 10111 10109 10107 10105 10102 10100 10098 10097 10096 10095 10093 10091 10088 10086 10083 10081 10078 10076 10073 10070 10066 10063 10060 10057 10054 10051 10047 10043 10040 10036 10033 10029 10025 10022 10018 10014 10009 10004 10000 9995 9990 9985 9980 9976 9971 9966 9961 9957 9952 9947 9942 9936 9929 9923 9918 9913 9907 9900 9894 9889 9882 9875 9869 9863 9858 9852 9846 9841
10118 10118 10118 10117 10114 10112 10109 10106 10104 10103 10102 10101 10101 10101 10101 10100 10098 10096 10094 10092 10089 10087 10085 10083 10082 10081 10080 10078 10075 10072 10070 10068 10066 10063 10060 10057 10054 10051 10048 10044 10042 10039 10036 10032 10029 10025 10021 10018 10014 10010 10006 10002 9998 9993 9988 9983 9978 9974 9969 9964 9960 9955 9951 9946 9942 9937 9932 9926 9920 9913 9908 9903 9898 9892 9886 9880 9875 9869 9861 9855 9849 9844 9839 9834 9828
10102 10102 10102 10101 10098 10096 10094 10093 10092 10091 10089 10087 10087 10086 10086 10085 10084 10082 10080 10077 10075 10072 10070 10068 10067 10066 10065 10063 10060 10057 10055 10054 10052 10049 10046 10042 10039 10037 10034 10031 10028 10024 10021 10018 10014 10010 10006 10003 9999 9994 9990 9986 9981 9977 9972 9967 9962 9957 9952 9948 9943 9939 9935 9931 9926 9922 9917 9911 9904 9898 9892 9887 9882 9877 9871 9866 9861 9855 9848 9841 9836 9831 9826 9821 9816
10088 10087 10086 10086 10085 10081 10078 10077 10077 10077 10076 10074 10074 10073 10072 10071 10070 10068 10066 10064 10062 10059 10057 10055 10054 10052 10050 10047 10044 10042 10041 10039 10037 10034 10031 10028 10026 10023 10020 10017 10013 10010 10006 10002 9998 9994 9990 9987 9982 9978 9974 9970 9965 9961 9956 9951 9946 9941 9936 9931 9927 9923 9919 9915 9911 9906 9901 9895 9889 9883 9878 9872 9867 9862 9857 9851 9846 9841 9835 9829 9824 9819 9813 9807 9803
10075 10074 10073 10072 10071 10070 10067 10064 10062 10060 10060 10060 10059 10059 10058 10057 10055 10054 10052 10050 10048 10046 10044 10042 10041 10039 10036 10033 10030 10028 10026 10025 10023 10020 10017 10014 10011 10008 10005 10002 9998 9994 9991 9987 9983 9979 9975 9971 9967 9963 9959 9954 9949 9944 9939 9934 9929 9924 9920 9916 9911 9907 9903 9899 9895 9891 9885 9880 9874 9868 9863 9857 9851 9846 9841 9837 9832 9827 9822 9817 9812 9806 9800 9795 9790
10062 10062 10061 10059 10058 10057 10055 10053 10050 10048 10047 10046 10045 10044 10043 10042 10041 10040 10038 10036 10035 10033 10031 10029 10027 10024 10022 10018 10015 10013 10012 10010 10008 10005 10002 9999 9997 9993 9990 9986 9983 9979 9976 9972 9968 9965 9961 9957 9953 9948 9943 9938 9933 9928 9923 9918 9914 9909 9905 9901 9897 9892 9888 9884 9880 9876 9870 9865 9860 9854 9847 9841 9835 9830 9826 9822 9819 9814 9809 9804 9799 9794 9789 9783 9778
10048 10047 10047 10047 10046 10044 10042 10040 10038 10036 10035 10033 10032 10030 10029 10028 10027 10026 10024 10023 10021 10019 10017 10015 10012 10009 10007 10004 10000 9998 9997 9995 9993 9990 9988 9984 9981 9978 9974 9971 9968 9964 9960 9956 9953 9949 9945 9941 9937 9932 9927 9922 9917 9912 9908 9904 9900 9895 9891 9887 9882 9878 9874 9870 9865 9860 9855 9850 9845 9838 9832 9826 9820 9815 9811 9808 9805 9801 9797 9792 9787 9782 9777 9772 9767
10034 10033 10033 10033 10032 10031 10030 10028 10026 10024 10023 10021 10019 10017 10016 10015 10013 10012 10011 10009 10008 10006 10003 10001 9998 9995 9993 9990 9987 9984 9983 9980 9978 9975 9972 9969 9966 9962 9959 9956 9952 9948 9945 9941 9937 9933 9929 9925 9920 9916 9911 9906 9902 9898 9894 9890 9886 9882 9877 9872 9868 9863 9859 9854 9850 9844 9839 9834 9829 9824 9818 9812 9806 9801 9797 9794 9791 9788 9785 9780 9776 9771 9766 9761 9756
10019 10019 10019 10019 10018 10017 10016 10015 10013 10012 10010 10008 10006 10005 10003 10002 10000 9998 9997 9995 9993 9991 9989 9986 9984 9981 9978 9976 9973 9971 9968 9966 9963 9960 9957 9954 9951 9948 9944 9941 9937 9933 9929 9925 9921 9917 9913 9908 9904 9899 9895 9891 9887 9884 9880 9876 9872 9868 9863 9858 9853 9848 9843 9838 9834 9829 9824 9819 9814 9809 9804 9799 9793 9787 9783 9781 9778 9775 9772 9768 9764 9760 9755 9750 9745
10005 10005 10004 10004 10003 10002 10001 10001 10000 9998 9997 9996 9994 9993 9991 9989 9988 9986 9984 9982 9980 9977 9975 9973 9970 9968 9965 9963 9960 9958 9955 9952 9949 9946 9944 9940 9937 9934 9930 9926 9922 9918 9914 9909 9905 9900 9896 9892 9888 9884 9880 9876 9873 9869 9865 9862 9858 9853 9848 9843 9838 9833 9828 9823 9819 9814 9809 9804 9799 9795 9790 9785 9780 9775 9771 9768 9765 9763 9760 9756 9753 9749 9745 9740 9735
9992 9991 9990 9990 9989 9988 9986 9986 9985 9984 9982 9981 9980 9979 9977 9976 9974 9973 9971 9969 9967 9964 9962 9959 9957 9954 9952 9950 9947 9944 9941 9938 9935 9932 9929 9926 9922 9919 9915 9910 9906 9902 9897 9892 9888 9884 9880 9876 9872 9869 9865 9861 9858 9854 9850 9846 9842 9838 9833 9828 9823 9818 9814 9810 9805 9800 9795 9791 9786 9781 9776 9771 9767 9763 9759 9756 9753 9751 9748 9744 9741 9738 9734 9729 9725
9978 9977 9977 9976 9976 9975 9973 9972 9970 9968 9967 9966 9964 9963 9962 9961 9959 9958 9956 9954 9952 9950 9948 9945 9942 9940 9937 9935 9932 9929 9926 9923 9920 9917 9914 9910 9907 9903 9898 9894 9889 9884 9880 9875 9872 9868 9864 9861 9857 9853 9849 9846 9842 9838 9834 9830 9826 9822 9817 9812 9807 9803 9800 9796 9791 9786 9782 9778 9773 9768 9763 9759 9755 9751 9747 9744 9742 9739 9736 9733 9730 9727 9723 9719 9715